Clines Corner, NM

1:27 PM MDT on October 17, 2017 (GMT -0600)
Clines Corner

Weather History for KCQC - February, 2013

Change the Weather History Date:

Tuesday, February 19, 2013

  Actual Average (KSAF) Record (KSAF)
Temperature  
Mean Temperature 36 °F -  
Max Temperature 50 °F 0 °F 66 °F (2011)
Min Temperature 23 °F - 18 °F (2012)
Degree Days  
Heating Degree Days 28    
Moisture  
Dew Point 11 °F    
Average Humidity 41    
Maximum Humidity 82    
Minimum Humidity 15    
Precipitation  
Precipitation 0.00 in - - ()
Sea Level Pressure  
Sea Level Pressure 29.91 in    
Wind  
Wind Speed 9 mph (SSE)    
Max Wind Speed 18 mph    
Max Gust Speed 30 mph    
Visibility 10 miles    
Events      
Averages and records for this station are not official NWS values.
T = Trace of Precipitation, MM = Missing Value Source: NWS Daily Summary

Daily Weather History Graph

Daily Weather History Graph

Search for Another Location

Airport or City:

Trip Planner

Search our weather history database for the weather conditions in past years. The results will help you decide how hot, cold, wet, or windy it might be!

Date:

Astronomy

Feb. 19, 2013 Rise Set
Actual Time 6:43 AM MST 5:49 PM MST
Civil Twilight 6:18 AM MST 6:15 PM MST
Nautical Twilight 5:48 AM MST 6:44 PM MST
Astronomical Twilight 5:19 AM MST 7:14 PM MST
Moon 12:30 PM MST (2/19) 2:10 AM MST (2/19)
Length of Visible Light 11h 57m
Length of Day
11h 05m
Waxing Gibbous, 68% of the Moon is Illuminated
Feb 19
Waxing Gibbous
Feb 25
Full
Mar 4
Last Quarter
Mar 11
New
Mar 19
First Quarter

Hourly Weather History & Observations

Time (MST) Temp. Windchill Dew Point Humidity Pressure Visibility Wind Dir Wind Speed Gust Speed Precip Events Conditions
12:53 AM 28.9 °F 25.2 °F -9.0 °F 19% 30.05 in 10.0 mi West 3.5 mph - N/A   Clear
1:53 AM 28.9 °F 25.2 °F -9.0 °F 19% 30.03 in 10.0 mi NNW 3.5 mph - N/A   Clear
2:53 AM 28.0 °F 20.0 °F -9.9 °F 19% 30.01 in 10.0 mi North 8.1 mph - N/A   Clear
3:53 AM 30.9 °F - -11.9 °F 15% 29.99 in 10.0 mi Calm Calm - N/A   Clear
4:53 AM 26.1 °F 18.4 °F -11.0 °F 19% 30.02 in 10.0 mi South 6.9 mph - N/A   Clear
5:53 AM 26.1 °F 16.8 °F -11.0 °F 19% 30.06 in 10.0 mi SSE 9.2 mph - N/A   Clear
6:53 AM 23.0 °F 15.8 °F 3.0 °F 42% 30.09 in 10.0 mi South 5.8 mph - N/A   Clear
7:53 AM 28.0 °F 20.8 °F 7.0 °F 41% 30.08 in 10.0 mi SSE 6.9 mph - N/A   Clear
8:53 AM 36.0 °F 28.0 °F 8.1 °F 31% 30.06 in 10.0 mi SSE 11.5 mph - N/A   Clear
9:53 AM 41.0 °F 34.3 °F 9.0 °F 27% 30.03 in 10.0 mi SSE 11.5 mph - N/A   Clear
10:53 AM 45.0 °F 39.7 °F 8.1 °F 22% 29.98 in 10.0 mi SSE 10.4 mph 16.1 mph N/A   Clear
11:53 AM 46.0 °F 40.2 °F 10.0 °F 23% 29.94 in 10.0 mi SE 12.7 mph 21.9 mph N/A   Clear
12:53 PM 46.9 °F - 12.0 °F 24% 29.88 in 10.0 mi SE 15.0 mph 20.7 mph N/A   Clear
1:53 PM 50.0 °F - 12.0 °F 22% 29.81 in 10.0 mi SE 17.3 mph 29.9 mph N/A   Clear
2:53 PM 48.0 °F - 14.0 °F 26% 29.81 in 10.0 mi SSE 18.4 mph 27.6 mph N/A   Clear
3:53 PM 45.0 °F 37.4 °F 16.0 °F 31% 29.80 in 10.0 mi SSE 18.4 mph 26.5 mph N/A   Clear
5:53 PM 37.0 °F 27.4 °F 16.0 °F 42% 29.84 in 10.0 mi SSE 17.3 mph 24.2 mph N/A   Clear
6:53 PM 34.0 °F 24.2 °F 17.1 °F 50% 29.88 in 10.0 mi SSE 15.0 mph - N/A   Clear
7:53 PM 30.9 °F 20.2 °F 17.1 °F 57% 29.86 in 10.0 mi SSE 15.0 mph - N/A   Clear
8:53 PM 30.9 °F 22.2 °F 18.0 °F 59% 29.81 in 10.0 mi SSE 10.4 mph - N/A   Mostly Cloudy
9:33 PM 35.6 °F 27.5 °F 28.4 °F 75% 29.82 in 10.0 mi South 11.5 mph - N/A   Overcast
9:53 PM 32.0 °F 26.4 °F 21.0 °F 64% 29.77 in 10.0 mi ESE 5.8 mph - N/A   Overcast
10:29 PM 37.4 °F 28.2 °F 30.2 °F 75% 29.81 in 10.0 mi SSW 16.1 mph 21.9 mph N/A   Overcast
10:53 PM 37.0 °F 27.0 °F 30.9 °F 79% 29.71 in 10.0 mi SSW 18.4 mph - N/A   Overcast
11:51 PM 35.6 °F 26.2 °F 30.2 °F 81% 29.79 in 10.0 mi SSW 15.0 mph - N/A   Overcast
11:53 PM 36.0 °F 26.7 °F 30.9 °F 82% 29.70 in 10.0 mi SSW 15.0 mph - N/A   Overcast